Location: Le Domaine
(47.0333°N, 76.5361°W)
Time: 15:40:52
(UTC-04:00)

Tiangong 2 - Visible Passes

Search period start: 21 March 2019 00:00
Search period end: 31 March 2019 00:00
Orbit: 379 x 390 km, 42.8° (Epoch: 21 March)

Date Brightness Start Highest point End Pass type
(mag) Time Alt. Az. Time Alt. Az. Time Alt. Az.
21 Mar 4.0 04:43:55 12° SE 04:43:55 12° SE 04:44:16 10° ESE visible
21 Mar 3.1 06:16:09 12° SW 06:17:34 15° SSW 06:19:33 10° SSE visible
22 Mar 3.2 05:19:39 17° SSE 05:19:39 17° SSE 05:20:48 10° SSE visible
